Regional Weather Roundup
Issued by NWS

Home | Current Version | Previous Version | Text Only | Print | Product List | Glossary Off
Versions: 1 2 3 4 5 6 7 8 9 10 11 12 13 14 15 16 17 18 19 20 21 22 23 24 25 26 27 28 29 30 31 32 33 34 35 36 37 38 39 40 41 42 43 44 45 46 47 48 49 50

000
ASUS43 KLSX 241959
RWRMO

WEATHER SUMMARY FOR MISSOURI
NATIONAL WEATHER SERVICE SPRINGFIELD MO
300 PM CDT SUN MAY 24 2015

NOTE: "FAIR" INDICATES FEW OR NO CLOUDS BELOW 12,000 FEET WITH NO
       SIGNIFICANT WEATHER AND/OR OBSTRUCTIONS TO VISIBILITY.
       CURRENT SKY AND/OR WEATHER CONDITIONS ARE NOT AVAILABLE FOR
       CHILLICOTHE AND FARMINGTON.

MOZ001>031-035>038-043-044-053-054-242100-
...NORTHERN AND WESTERN MISSOURI...

CITY           SKY/WX    TMP DP  RH WIND       PRES   REMARKS
KANSAS CTY INT CLOUDY    69  64  84 S9        29.86F
KANSAS C DTWN  CLOUDY    71  63  75 S5        29.85F
LEE`S SUMMIT   LGT RAIN  67  63  87 S6        29.87F
ST JOSEPH      CLOUDY    70  64  81 S10       29.84F
KIRKSVILLE     LGT RAIN  70  68  93 SW6       29.88F FOG

$$
MOZ066>068-077>081-088>096-101>105-242100-
...SOUTHWEST MISSOURI...

CITY           SKY/WX    TMP DP  RH WIND       PRES   REMARKS
SPRINGFIELD    LGT RAIN  68  64  87 SW10      29.92F

$$
MOZ032>034-039>042-045>050-055>058-069>072-242100-
...CENTRAL MISSOURI...

CITY           SKY/WX    TMP DP  RH WIND       PRES   REMARKS
COLUMBIA       PTSUNNY   79  66  64 S15       29.87F
JEFFERSON CITY MOSUNNY   83  65  54 S20G25    29.86F
ROLLA          PTSUNNY   80  67  64 S16       29.90F
SEDALIA        CLOUDY    72  66  81 SW7       29.88S
OSAGE BEACH    CLOUDY    70  64  83 SW13      29.91R

$$
MOZ051-052-059>065-242100-
...EAST CENTRAL MISSOURI...

CITY           SKY/WX    TMP DP  RH WIND       PRES   REMARKS
ST LOUIS INTL  PTSUNNY   85  62  46 S17       29.96F
SPIRIT OF STL  PTSUNNY   84  63  49 S18G28    29.93F
ST CHARLES     PTSUNNY   84  63  49 S22G31    29.93F

$$
MOZ072>076-082>087-097>100-106>115-242100-
...SOUTH CENTRAL AND SOUTHEAST MISSOURI...

CITY           SKY/WX    TMP DP  RH WIND       PRES   REMARKS
CAPE GIRARDEAU MOSUNNY   84  66  54 S16       30.01F
FARMINGTON     MOSUNNY   81  64  57 S16G28    30.03F
POPLAR BLUFF   PTSUNNY   81  66  60 S14       29.97F
WEST PLAINS    RAIN      74  67  78 S13       29.97F

$$


USA.gov is the U.S. government's official web portal to all federal, state and local government web resources and services.